Location: ??
(31.9467°N, 34.8903°E)
Time: 17:52:50
(UTC+00:00)

Cosmos 1455 - Pass Details

Date: 29 October 2020
Orbit: 499 x 521 km, 82.5° (Epoch: 30 November)

Event Time Altitude Azimuth Distance (km) Brightness Sun altitude
Rises 16:12:52 0° 192° (SSW) 2,586 6.0 -17.4°
Reaches altitude 10° 16:14:59 10° 195° (SSW) 1,709 5.1 -17.9°
Maximum altitude 16:18:41 63° 277° (W) 570 2.6 -18.7°
Drops below altitude 10° 16:22:27 10° 359° (N) 1,734 4.8 -19.5°
Sets 16:24:37 0° 3° (N) 2,628 5.7 -19.9°
